Regional Weather Roundup
Issued by NWS

Current Version | Previous Version | Text Only | Print | Product List | Glossary On
Versions: 1 2 3 4 5 6 7 8 9 10 11 12 13 14 15 16 17 18 19 20 21 22 23 24 25 26 27 28 29 30 31 32 33 34 35 36 37 38 39 40 41 42 43 44 45 46 47 48 49 50
000
ASUS42 KTBW 301110
RWRFL
FLORIDA REGIONAL WEATHER ROUNDUP
NATIONAL WEATHER SERVICE TAMPA BAY RUSKIN FL
700 AM EDT WED JUL 30 2014

NOTE: "FAIR" INDICATES FEW OR NO CLOUDS BELOW 12,000 FEET WITH NO
SIGNIFICANT WEATHER AND/OR OBSTRUCTIONS TO VISIBILITY.


FLZ001>010-012>015-112-114-115-301200-
PANHANDLE FLORIDA

CITY           SKY/WX    TMP DP  RH WIND       PRES   REMARKS
PENSACOLA      MOCLDY    68  58  70 N6        30.02R
PENSACOLA NAS  MOCLDY    69  59  70 N7        30.02R
MILTON NAS     PTCLDY    65  56  72 N6        30.03S
CRESTVIEW      CLEAR     66  59  78 N5        30.04R
DUKE FIELD     MOCLDY    67  61  80 N6        30.03R
MARY ESTHER    PTCLDY    68  58  69 N7        30.01R
TRI COUNTY     FAIR      65  62  90 CALM      30.03R
PANAMA CITY    FAIR      69  63  81 NW3       30.00R
TYNDALL AFB    CLEAR     72  65  78 NE6       30.00R
APALACHICOLA   CLEAR     69  65  86 N3        29.99R

STATION/POSITION SKY/WX   TEMP    WIND        PRES    WAVE   SWELL
                          AIR SEA DIR/SP/G            HT/PER HT/PER
                          (F)     (DEG/KT/KT) (MB)    (FT/S) (FT/S)
30.1N   87.6W              76 83   20/ 14/ 17 1016.3R   2/ 3
29.2N   88.2W              83 85  330/  8/ 17 1016.0R
28.8N   86.0W              83 85  360/  6/  8 1015.3R   2/ 3   2/ 4
PANAMA CITY BEAC           70 77   20/  8/ 12 1015.7S
CAPE SAN BLAS    NOT AVBL
TOWER C                    79      30/ 12/ 13 1015.4R
28.5N   84.5W              84 85   20/ 10/ 14 1014.8R   3/ 4   2/ 6

$$
FLZ011-016>038-118-127-128-134-139-239-301200-
NORTH FLORIDA

CITY           SKY/WX    TMP DP  RH WIND       PRES   REMARKS
MARIANNA       CLEAR     67  66  97 CALM      30.01R
TALLAHASSEE    PTCLDY    68  62  80 N5        29.99S
PERRY          CLEAR     68  61  77 N5        29.99R
CROSS CITY       N/A     67  64  90 CALM      29.97R
GAINESVILLE    CLEAR     68  64  87 NW7       29.96S
MAYPORT NAS    MOCLDY    75  66  73 W6        29.94R
JACKSONVILLE   MOCLDY    71  63  75 CALM      29.94R
JAX NAS        PTCLDY    78  61  55 NW6       29.95R
JAX CRAIG      PTCLDY    75  65  70 W5        29.94R
JAX CECIL      PTCLDY    66  63  88 CALM      29.96R
FERNANDINA BEA FAIR      75  68  78 W3        29.93R
ST AUGUSTINE   MOCLDY    73  65  75 NW5       29.95R

STATION/POSITION SKY/WX   TEMP    WIND        PRES    WAVE   SWELL
                          AIR SEA DIR/SP/G            HT/PER HT/PER
                          (F)     (DEG/KT/KT) (MB)    (FT/S) (FT/S)
SHELL POINT                71      10/  5/  7   N/A
KEATON BEACH               71      20/  6/  7 1015.2R
CEDAR KEY                  76      10/  7/  9 1014.8R
FERNANDINA                 77 86  300/  2/  3 1013.4R
30.7N   81.3W                 85                N/A     2/ 8
MAYPORT                    75 86  310/  8/  9   N/A
31.4N   80.9W              82 85   90/  6/ 10 1014.0R   1/ 8   2/ 8
ST AUGUSTINE               74     300/  6/  7 1014.4R

$$
FLZ040-043>046-052-053-057-058-063-144-301200-
INTERIOR CENTRAL FLORIDA

CITY           SKY/WX    TMP DP  RH WIND       PRES   REMARKS
OCALA          CLEAR     70  61  73 CALM      29.97R
LEESBURG       CLEAR     75  69  81 NW3       29.96R
SANFORD        CLEAR     74  72  93 W6        29.95R
ORLANDO EXEC   CLEAR     76  74  93 W3        29.96R
ORLANDO INTL   PTCLDY    75  75 100 W5        29.96R
KISSIMMEE      CLEAR     75  73  94 CALM      29.96
WINTER HAVEN   CLEAR     75  74  96 W3        29.97S
BARTOW         FAIR      75 N/A N/A CALM      29.97S
OKEECHOBEE       N/A     73  73 100 MISG      29.97R

$$
FLZ041-047-054-059-064-141-147-301200-
EAST CENTRAL FLORIDA

CITY           SKY/WX    TMP DP  RH WIND       PRES   REMARKS
ORMOND BEACH   CLEAR     72  68  88 CALM      29.95
DAYTONA BEACH  PTCLDY    72  69  90 SW5       29.95R
DELAND         SUNNY     72  70  94 MISG      29.96R
NEW SMYRNA BEA CLEAR     73  72  94 W5        29.95
JFK SPACE CTR  CLEAR     76  76 100 W6        29.94R
TITUSVILLE     CLEAR     73  73 100 MISG      29.95  HAZE
CAPE CANAVERAL CLEAR     77  75  94 W6        29.94R
PATRICK AFB    CLEAR     78  76  94 W9        29.94S
MELBOURNE      CLEAR     76  75  97 W6        29.94S
VERO BEACH     CLEAR     74  74 100 CALM      29.96R
FT PIERCE      CLEAR     75  72  90 CALM      29.96R
STUART         PTCLDY    77  75  94 CALM      29.97S

STATION/POSITION SKY/WX   TEMP    WIND        PRES    WAVE   SWELL
                          AIR SEA DIR/SP/G            HT/PER HT/PER
                          (F)     (DEG/KT/KT) (MB)    (FT/S) (FT/S)
28.5N   80.2W              80 82  260/ 12/ 16 1013.8R
28.9N   78.5W              83 84  250/ 10/ 12 1014.0R   3/ 5   3/ 5
TRIDENT PIER               78 84  240/  7/  8 1013.4S
28.4N   80.5W                 82                N/A     1/ 8
27.6N   80.2W                 82                N/A     1/ 9

$$
FLZ050-056-061-142-242-148-248-149-249-151-251-155-255-
160-260-301200-
WEST CENTRAL FLORIDA

CITY           SKY/WX    TMP DP  RH WIND       PRES   REMARKS
CRYSTAL RIVER  FAIR      68  66  94 CALM      29.97R
INVERNESS      FAIR      70  66  88 CALM      29.97R FOG
BROOKSVILLE    CLEAR     71  70  96 CALM      29.97R
ZEPHYRHILLS    FOG       66  66 100 CALM      29.97S VSB 1/4
CLEARWATER     PTCLDY    82  73  74 NE5       29.96R
TAMPA INTL     PTCLDY    80  73  79 CALM      29.97R
TAMPA EXEC     FOG       77  73  88 CALM      29.97R VSB 1/4
PLANT CITY     CLEAR     75 N/A N/A MISG      29.99R HAZE
MACDILL AFB    PTCLDY    76  75  96 E3        29.96R
ST PETERSBURG  PTCLDY    83  74  74 N3        29.95R
SARASOTA       MOCLDY    77  74  90 CALM      29.95R
VENICE         LGT RAIN  79  75  89 NE6       29.98R

STATION/POSITION SKY/WX   TEMP    WIND        PRES    WAVE   SWELL
                          AIR SEA DIR/SP/G            HT/PER HT/PER
                          (F)     (DEG/KT/KT) (MB)    (FT/S) (FT/S)
CEDAR KEY                  76      10/  7/  9 1014.8R
28.5N   84.5W              84 85   20/ 10/ 14 1014.8R   3/ 4   2/ 6
27.3N   84.3W                 86                N/A     2/ 5
CLEARWATER BEACH           81 86   50/  5/  6 1014.2R
MIDDLE TAMPA BAY           80     180/  5/  6 1014.6R
VENICE                     79 88   60/  4/  5 1014.5R

$$
FLZ066-069-070-075>078-162-262-165-265-301200-
SOUTHWEST FLORIDA AND KEYS

CITY           SKY/WX    TMP DP  RH WIND       PRES   REMARKS
PUNTA GORDA    MOCLDY    77  74  90 SE3       29.99R
FT MYERS       MOCLDY    79  77  94 CALM      29.97R
SOUTHWEST INTL MOCLDY    77  75  93 CALM      29.97S
NAPLES         PTCLDY    81  81 100 CALM      29.97R
MARCO ISLAND   MOSUNNY   75  73  94 SE6       29.98R
MARATHON       RAIN      81  77  88 SE7       29.99R FOG
KEY WEST NAS   PTCLDY    84  75  74 W7        29.99R
KEY WEST INTL  CLEAR     84  73  69 W6        30.00R

STATION/POSITION SKY/WX   TEMP    WIND        PRES    WAVE   SWELL
                          AIR SEA DIR/SP/G            HT/PER HT/PER
                          (F)     (DEG/KT/KT) (MB)    (FT/S) (FT/S)
VENICE                     79 88   60/  4/  5 1014.5R
NAPLES                     85 91              1015.3R
DRY TORTUGAS               85     270/  7/  7 1015.6R
NW FL BAY                  87     280/  9/ 11 1014.9F
SAND KEY                   84     250/  8/ 12 1015.7R
SOMBRERO KEY               85     230/  9/  9 1016.4R
LONG KEY                   86 90  250/  7/  8 1015.8S
MOLASSES REEF              85 86  230/  7/  8 1015.5R

$$
FLZ067-068-071>074-168-172>174-301200-
SOUTHEAST FLORIDA

CITY           SKY/WX    TMP DP  RH WIND       PRES   REMARKS
W PALM BEACH   PTCLDY    79  76  90 SW5       29.97R
FT LAUDER-EXEC CLEAR     79  78  97 SW3       29.97R
FT LAUDERDALE  PTCLDY    81  76  84 SW3       29.97R
POMPANO BEACH  PTCLDY   N/A N/A N/A MISG      29.98R
PEMBROKE PINES CLEAR     80  76  87 S3        29.99R
OPA LOCKA      CLEAR     80  75  84 CALM      29.98R
MIAMI          MOCLDY    81  76  84 SW5       29.99R
WEST KENDALL   PTCLDY    80  75  84 CALM      29.99R
HOMESTEAD      CLEAR     77  74  91 S2        29.99R

STATION/POSITION SKY/WX   TEMP    WIND        PRES    WAVE   SWELL
                          AIR SEA DIR/SP/G            HT/PER HT/PER
                          (F)     (DEG/KT/KT) (MB)    (FT/S) (FT/S)
PORT EVERGLADES            81     210/  2/  3 1015.1
VIRGINIA KEY               84 88  270/  5/  6   N/A
LAKE WORTH                 80 83              1014.7R
FOWEY ROCKS                85 86  240/  7/  9 1015.7R
SETTLEMENT POINT           81     170/ 11/ 15 1015.4R

$$




USA.gov is the U.S. government's official web portal to all federal, state and local government web resources and services.